Humidity-temperature Sensor

Selected Measurement Type: Relative Humidity

 
Relative Humidity [%]     6 entries per hour
Showing data from 3/5/2016 (00:00:00 Z) to 3/4/2016 (00:01:00 Z)
Previous Next [ Day | 3-Days | 7-Days ]
First Last
Prev [ Day | 3-Days | 7-Days ] Next
First Last

Start Time:     :
End Time:     :     
Time (in GMT) :00 :50 :40 :30 :20 :10
Previous Next [ Day | 3-Days | 7-Days ]
First Last
Prev [ Day | 3-Days | 7-Days ] Next
First Last


123 => good data
MM => data is determined as missing
-- => data not received/configured
Back to Top Back to Top
3/5/2016 00:00 to 23:10 85.76 84.98 84.73 84.36 85.66 85.09
3/4/2016 23:00 to 22:10 84.22 83.81 83.22 84.24 83.84 84.56
3/4/2016 22:00 to 21:10 83.90 84.43 83.75 83.43 83.79 85.44
3/4/2016 21:00 to 20:10 85.25 86.12 87.58 86.38 86.95 86.19
3/4/2016 20:00 to 19:10 87.06 86.61 86.34 86.00 84.94 85.17
3/4/2016 19:00 to 18:10 85.30 85.40 85.15 83.47 85.59 87.06
3/4/2016 18:00 to 17:10 87.52 87.29 88.12 89.00 88.37 87.97
3/4/2016 17:00 to 16:10 88.75 88.71 88.09 88.05 87.82 88.71
3/4/2016 16:00 to 15:10 88.96 89.03 89.96 89.91 89.85 89.73
3/4/2016 15:00 to 14:10 90.42 90.80 89.73 89.38 89.62 90.15
3/4/2016 14:00 to 13:10 89.24 90.32 89.83 89.66 90.00 89.79
3/4/2016 13:00 to 12:10 89.83 89.89 89.47 89.11 89.26 88.98
3/4/2016 12:00 to 11:10 89.02 88.77 88.86 88.52 88.86 88.31
3/4/2016 11:00 to 10:10 88.67 87.65 87.27 88.20 88.16 88.05
3/4/2016 10:00 to 9:10 88.28 87.42 87.18 87.08 86.84 86.84
3/4/2016 09:00 to 8:10 88.24 88.62 88.54 88.48 89.03 89.45
3/4/2016 08:00 to 7:10 89.68 90.06 89.98 88.86 88.54 88.58
3/4/2016 07:00 to 6:10 88.45 88.33 88.64 88.03 88.22 87.78
3/4/2016 06:00 to 5:10 87.63 86.42 85.66 85.23 86.17 86.23
3/4/2016 05:00 to 4:10 86.93 87.52 88.31 87.90 87.65 86.97
3/4/2016 04:00 to 3:10 86.57 85.85 85.78 86.59 85.95 87.48
3/4/2016 03:00 to 2:10 87.35 88.11 88.43 88.67 88.62 89.09
3/4/2016 02:00 to 1:10 88.75 89.32 88.41 88.56 89.49 90.13
3/4/2016 01:00 to 0:10 89.41 88.67 88.52 88.47 87.67 87.27